Regional Weather Roundup
Issued by NWS

Home | Current Version | Previous Version | Graphics & Text | Print | Product List | Glossary On
Versions: 1 2 3 4 5 6 7 8 9 10 11 12 13 14 15 16 17 18 19 20 21 22 23 24 25 26 27 28 29 30 31 32 33 34 35 36 37 38 39 40 41 42 43 44 45 46 47 48 49 50
000
ASUS45 KTFX 240704
RWRMT
MONTANA HOURLY WEATHER ROUNDUP
NATIONAL WEATHER SERVICE GREAT FALLS MT
104 AM MDT THU APR 24 2014

NOTE: "FAIR" INDICATES FEW OR NO CLOUDS BELOW 12000 FEET WITH NO
SIGNIFICANT WEATHER AND/OR OBSTRUCTIONS TO VISIBILITY.

* THESE STATIONS ARE NOT UNDER NWS QUALITY CONTROL. THEY DO NOT
   REPORT WEATHER SUCH AS PRECIPITATION OR FOG.

MTZ001>007-043-240800-
WEST OF THE DIVIDE
CITY           SKY/WX    TMP DP  RH WIND       PRES   REMARKS
KALISPELL      CLOUDY    39  32  76 S7        29.85S WCI  34
MISSOULA       CLOUDY    37  36  96 SW3       29.91S
BUTTE          CLOUDY    37  21  52 W6        29.87R WCI  32
MULLAN PASS    LGT SNOW  27  27 100 CALM      29.81S VSB 3/4
* ESSEX        N/A       33  25  72 S1         N/A
* LINCOLN      N/A       32  32 100 S5G12      N/A   WCI  27
* LOOKOUT PASS N/A       32  31  96 SE1        N/A
* POLSON       N/A       33  30  89 SW2        N/A
* SEELEY LAKE  N/A       33  32  96 N/A        N/A
* THOMP F APT  MOCLDY    31  17  56 N5         N/A   WCI  26
* YAAK HILL    N/A       40  33  76 NE1        N/A
$$

MTZ008-052>055-240800-
SOUTHWEST MONTANA
CITY           SKY/WX    TMP DP  RH WIND       PRES   REMARKS
BOZEMAN        CLOUDY    45  21  38 SW18G26   29.86R
DILLON         PTCLDY    36  23  59 S14       29.90R WCI  27
W YELLOWSTONE  N/A       29  22  75 S3G12      N/A
* THREE FORKS  MOCLDY    39  32  76 N/A        N/A
* BOULDER HILL N/A       35  20  54 SW9        N/A   WCI  28
* MONIDA PASS  N/A       28  13  53 SE9        N/A   WCI  19
* RAYNOLDS PAS N/A       26  14  60 S8         N/A   WCI  18
* WHITEHALL    N/A       40  26  57 SW13G20    N/A   WCI  32
* WISE RIVER   N/A       35  25  67 W10G15     N/A   WCI  27
$$

MTZ009>010-012-014-046-048-049-054-240800-
EAST SLOPES AND CENTRAL MONTANA
CITY           SKY/WX    TMP DP  RH WIND       PRES   REMARKS
CUT BANK       CLEAR     36  19  50 W20       29.71R WCI  25
GREAT FALLS    PTCLDY    36  28  73 SW20G25   29.75F WCI  25
HELENA         CLOUDY    37  34  89 CALM      29.86R
MALMSTROM AFB  PTCLDY    37  28  70 SW17      29.73S WCI  27
* CONRAD       CLEAR     30  25  82 N/A        N/A
* DEARBORN     N/A       41  30  65 S10        N/A
* EAST GLACIER N/A       34  16  48 NW19G27    N/A   WCI  23
* MONARCH      N/A       33  16  50 SW16G21    N/A   WCI  23
* PENDROY      N/A       36  20  52 W12G19     N/A   WCI  28
* ROGERS PASS  N/A       30  27  89 SE9G20     N/A   WCI  22
* SAINT MARY   N/A       35  21  57 SW10G26    N/A   WCI  27
* SWEET GRASS  N/A       36  22  57 SE20G29    N/A   WCI  25
$$

MTZ011-013-016-021-035-040-045-047-050-051-240800-
NORTH CENTRAL MONTANA
CITY           SKY/WX    TMP DP  RH WIND       PRES   REMARKS
HAVRE          CLOUDY    39  28  65 SW18      29.70S WCI  30
LEWISTOWN      PTCLDY    36  25  64 W13       29.77R WCI  27
* CHESTER      N/A       33  25  72 SW6        N/A   WCI  27
* DENTON       N/A       31  22  69 SW8        N/A   WCI  24
* GEYSER       N/A       31  20  64 W8         N/A   WCI  24
* JUDITH GAP   N/A       37  25  62 SW26G31    N/A   WCI  25
* LOMA         N/A       40  28  62 SW11G16    N/A   WCI  33
$$

MTZ017>020-022>027-061-062-240800-
NORTHEAST MONTANA
CITY           SKY/WX    TMP DP  RH WIND       PRES   REMARKS
GLASGOW        PTCLDY    39  27  62 W12       29.69R WCI  32
GLENDIVE       CLEAR     39  21  48 W10       29.73R WCI  32
JORDAN         PTCLDY    39  23  53 W10       29.73S WCI  32
SIDNEY         CLEAR     45  21  38 W14       29.70R
WOLF POINT     CLEAR     39  25  57 W9        29.68S WCI  33
* BEAVER HILL  N/A       41  21  45 SW10       N/A
* CIRCLE       N/A       40  24  53 W1         N/A
* LINDSAY DVD  N/A       41  20  43 SW17G22    N/A
* NAVAJO       N/A       37  31  79 W14        N/A   WCI  28
* SACO         N/A       42  26  53 SW15G21    N/A
$$

MTZ028>042-056>058-240800-
SOUTHCENTRAL AND SOUTHEAST MONTANA
CITY           SKY/WX    TMP DP  RH WIND       PRES   REMARKS
BAKER          CLEAR     39  23  53 W10       29.77R WCI  32
BILLINGS       PTCLDY    41  23  49 SW12      29.82R
LIVINGSTON     CLOUDY    45  19  35 W18       29.82R
MILES CITY     PTCLDY    43  25  49 W9        29.77R
* LAUREL APT   PTCLDY    37  18  46 N/A        N/A
* ROUNDUP APT  MOCLDY    43  21  42 SW9        N/A
* HYSHAM       N/A       43  21  42 W6G11      N/A
* REED POINT   N/A       38  27  65 SW3        N/A
* ROSCOE HILL  N/A       39  11  31 S1G12      N/A
$$

REGIONAL REPORTS...DAKOTAS
CITY           SKY/WX    TMP DP  RH WIND       PRES   REMARKS
WILLISTON      PTCLDY    45  25  45 W16       29.65R
DICKINSON      PTCLDY    39  25  57 W13       29.70S WCI  31
CROSBY         CLEAR     36  36 100 SW10      29.62S WCI  29
TIOGA          CLEAR     32  32 100 SW5       29.68R WCI  27
WATFORD CITY   CLEAR     34  25  70 SW10      29.67R WCI  26
BISMARCK       CLOUDY    37 N/A N/A CALM      29.73F
GRAND FORKS    LGT RAIN  37  37 100 SE15      29.82F WCI  28
FARGO          CLOUDY    43  37  79 SE10G21   29.80S
BUFFALO SD     PTCLDY    36  25  64 W10       29.73S WCI  29
RAPID CITY     MOCLDY    37  27  67 NW6       29.84R WCI  32
$$

REGIONAL REPORTS...WYOMING/IDAHO/WASHINGTON
CITY           SKY/WX    TMP DP  RH WIND       PRES   REMARKS
GILLETTE       CLEAR     36  25  64 SW10      29.87R WCI  29
SHERIDAN       CLEAR     36  19  50 VRB3      29.85S
CODY           PTCLDY    39  19  45 SW12      29.88R WCI  32
YELLOWSTONE LA MOCLDY    25  19  78 VRB6      29.98F WCI  18
SALMON         CLOUDY    45  21  38 SW14G20   29.91S
MULLAN PASS    LGT SNOW  27  27 100 CALM      29.81S VSB 3/4
SPOKANE        LGT RAIN  43  37  79 SE10      29.82S
$$

REGIONAL REPORTS...ALBERTA
CITY           SKY/WX    TMP DP  RH WIND       PRES   REMARKS
MEDICINE HAT   LGT RAIN  43  37  79 W28       29.66R

$$




USA.gov is the U.S. government's official web portal to all federal, state and local government web resources and services.